[[{"header":{"parameterUnit":"m.s-1","parameterCategory":1,"la1":30.2991,"la2":30.254,"lo1":-89.0895,"lo2":-89.0444,"dy":0.0017,"dx":0.0017,"nx":28,"ny":28,"refTime":"2024-09-30T03:00:00:Z","depth":0,"parameterNumber":2,"parameterNumberName":"U-component_of_WINDS"},"data":[0,0,0,0,0,0,0,0,0,0,0,0,0,0,0,0,0,0,0,0,0,0,0,0,0,0,0,0,0,0,0,0,0,0,0,0,0,0,0,0,0,0,0,0,0,0,0,0,0,0,0,0,0,0,0,0,0,0,1.1533,1.1534,0,1.1632,1.1633,1.1634,1.1626,1.1624,1.1623,1.1621,1.1724,1.1728,1.1732,0,0,0,0,0,0,0,0,0,0,0,0,0,1.1336,1.134,1.1532,1.1534,1.1535,1.1632,1.1633,1.1634,1.1626,1.1624,1.1622,1.1621,1.1723,1.1728,1.1733,0,0,0,0,0,0,0,0,0,0,0,0,0,1.1427,1.1341,1.1532,1.1542,1.1544,1.1631,1.1633,1.1635,1.1626,1.1624,1.1622,1.162,1.1721,1.1727,1.1734,1.1817,0,0,1.1753,1.1755,0,0,0,0,0,0,0,0,1.1422,1.1434,1.154,1.1542,1.1544,1.1614,1.1602,1.1696,1.1627,1.1595,1.1621,1.1619,1.169,1.1698,1.1722,1.1822,1.1827,1.1753,1.1757,1.176,1.1761,0,0,0,0,0,0,0,1.1416,1.143,1.1572,1.1541,1.1544,1.1542,1.1553,1.162,1.1654,1.1598,1.1597,1.1609,1.169,1.1716,1.1724,1.1828,1.1753,1.1759,1.1762,1.1765,1.2002,1.2005,0,0,0,0,0,0,1.1407,1.1425,1.1569,1.1575,1.1476,1.1548,1.1559,1.1594,1.1653,1.166,1.1611,1.1609,1.1706,1.1717,1.1728,1.183,1.176,1.1765,1.1769,1.2,1.2003,1.2006,0,0,0,0,0,0,1.1403,1.142,1.1565,1.15,1.1518,1.1553,1.1592,1.1597,1.1623,1.1663,1.1669,1.1631,1.1705,1.1719,1.1795,1.1834,1.1768,1.1774,1.1997,1.2001,1.2004,1.2035,0,0,0,0,0,0,1.1397,1.1418,1.145,1.1501,1.1522,1.163,1.1595,1.1601,1.1633,1.1631,1.1683,1.169,1.1704,1.1786,1.1801,1.1841,1.1779,1.1993,1.1999,1.2003,1.2031,1.204,1.2047,0,0,0,0,0,1.139,1.1456,1.1452,1.147,1.1562,1.1632,1.1644,1.1659,1.1636,1.1669,1.1695,1.1688,1.1827,1.1794,1.1811,1.1853,1.1991,1.1997,1.2003,1.2028,1.2038,1.2047,0,0,0,0,0,0,1.141,1.1462,1.1459,1.1543,1.1583,1.1631,1.1673,1.167,1.1718,1.1714,1.1731,1.1743,1.1819,1.1844,1.1806,1.1938,1.1906,1.1915,1.1919,1.1929,1.1937,1.193,1.1784,0,0,0,0,0,1.1424,1.1476,1.1519,1.1589,1.1609,1.1637,1.1668,1.1676,1.1719,1.1736,1.1768,1.181,1.1863,1.1897,1.1948,1.2034,1.2046,1.2072,1.208,1.2086,1.2095,1.2142,1.2154,1.2025,1.2025,1.2025,0,0,1.1453,1.1488,1.152,1.1593,1.1626,1.168,1.1652,1.171,1.175,1.1745,1.1819,1.1843,1.1891,1.1973,1.201,1.1996,1.2133,1.2094,1.2099,1.2104,1.2149,1.2162,1.2173,1.2029,1.2028,1.2027,0,0,1.1535,1.1567,1.1628,1.1661,1.171,1.1728,1.1742,1.1791,1.1807,1.1881,1.1878,1.1926,1.2017,1.2051,1.208,1.2174,1.217,1.219,1.2233,1.2279,1.2289,1.2299,1.2332,1.2344,1.2198,1.2198,1.2198,0,1.1566,1.1647,1.166,1.1719,1.1751,1.1748,1.1811,1.1842,1.1905,1.1927,1.191,1.2023,1.2055,1.2145,1.2168,1.2191,1.2209,1.2185,1.2287,1.2296,1.2305,1.2337,1.235,1.2201,1.22,1.22,1.22,0,1.1682,1.1738,1.1782,1.1843,1.188,1.194,1.1963,1.1999,1.2003,1.2023,1.2099,1.2137,1.2196,1.2217,1.2222,1.2308,1.2297,1.2283,1.2252,1.2319,1.235,1.2363,1.2204,1.2203,1.2202,1.2202,0,0,1.178,1.1847,1.1863,1.189,1.1943,1.1987,1.2047,1.2104,1.2135,1.2178,1.2229,1.2306,1.2293,1.2326,1.2335,1.2375,1.2448,1.2356,1.2358,1.2373,1.2544,1.2555,1.2569,1.2445,1.2447,1.2449,1.254,0,1.1868,1.1974,1.1988,1.2082,1.2134,1.2131,1.2184,1.2222,1.2242,1.229,1.2312,1.2366,1.2345,1.2365,1.2405,1.243,1.2482,1.2424,1.2493,1.2495,1.2482,1.2585,1.2597,1.2682,1.2553,1.2555,1.2556,0,1.1985,1.2031,1.213,1.2176,1.2198,1.2245,1.2298,1.2343,1.2387,1.2398,1.2435,1.2439,1.2501,1.2466,1.2553,1.2512,1.2541,1.2558,1.2562,1.257,1.253,1.2597,1.2709,1.2722,1.2575,1.2574,1.2572,0,1.2047,1.2134,1.2204,1.2228,1.2283,1.2316,1.234,1.2382,1.2415,1.2461,1.2483,1.2536,1.2565,1.2606,1.2624,1.2597,1.2709,1.2676,1.2721,1.2721,1.2746,1.2744,1.2866,1.2763,1.2763,1.2763,1.2763,0,1.2144,1.2205,1.2233,1.2277,1.2345,1.236,1.2427,1.245,1.2487,1.2535,1.2536,1.2581,1.2601,1.265,1.2664,1.2734,1.2747,1.2758,1.2762,1.2759,1.2757,1.2779,1.2773,1.2766,1.2766,1.2765,1.2764,0,1.2225,1.2247,1.2324,1.2369,1.2382,1.243,1.2469,1.2512,1.2531,1.2592,1.2607,1.2638,1.2695,1.2716,1.2786,1.2795,1.2876,1.2874,1.2861,1.2862,1.2906,1.2902,1.3046,1.3066,1.295,1.2951,1.2952,0,1.2286,1.2333,1.2383,1.2415,1.2441,1.2493,1.2526,1.2542,1.2577,1.263,1.2666,1.2723,1.2769,1.286,1.2889,1.2942,1.2942,1.2989,1.295,1.2946,1.2943,1.2941,1.2946,1.2996,1.2997,1.2998,1.2999,0,1.2392,1.24,1.2449,1.2501,1.254,1.2582,1.2623,1.2649,1.2671,1.2711,1.2769,1.2804,1.2875,1.2932,1.2986,1.3012,1.301,1.3011,1.3024,1.3022,1.3013,1.3019,1.2881,1.3008,1.3007,1.3006,1.3006,1.3005,1.2466,1.2508,1.2549,1.2603,1.2635,1.2673,1.2714,1.2738,1.2787,1.2846,1.2852,1.2915,1.2956,1.3029,1.3057,1.3106,1.3094,1.3113,1.3118,1.3123,1.3126,1.3005,1.3116,1.3116,1.3116,1.3116,1.3115,0,1.2573,1.2599,1.2648,1.2705,1.2747,1.274,1.2784,1.282,1.2875,1.2914,1.2959,1.3026,1.308,1.3113,1.3167,1.32,1.3201,1.3214,1.3213,1.3219,1.3134,1.3117,1.3213,1.3213,1.3213,1.3213,1.3213,1.3213,1.2633,1.2703,1.2716,1.2802,1.2827,1.2888,1.2914,1.2949,1.298,1.3054,1.3099,1.312,1.3156,1.3213,1.3263,1.3271,1.3292,1.3307,1.3314,1.3234,1.3224,1.3215,1.3199,1.3311,1.3311,1.3394,1.3395,1.3395]},{"header":{"parameterUnit":"m.s-1","parameterCategory":1,"la1":30.2991,"la2":30.254,"lo1":-89.0895,"lo2":-89.0444,"dy":0.0017,"dx":0.0017,"nx":28,"ny":28,"refTime":"2024-09-30T03:00:00:Z","depth":0,"parameterNumber":3,"parameterNumberName":"V-component_of_WINDS"},"data":[0,0,0,0,0,0,0,0,0,0,0,0,0,0,0,0,0,0,0,0,0,0,0,0,0,0,0,0,0,0,0,0,0,0,0,0,0,0,0,0,0,0,0,0,0,0,0,0,0,0,0,0,0,0,0,0,0,0,-1.1413,-1.1413,0,-1.1386,-1.1385,-1.1385,-1.1383,-1.1383,-1.1384,-1.1384,-1.1354,-1.1353,-1.1352,0,0,0,0,0,0,0,0,0,0,0,0,0,-1.1461,-1.146,-1.1413,-1.1413,-1.1412,-1.1386,-1.1385,-1.1385,-1.1383,-1.1383,-1.1384,-1.1384,-1.1354,-1.1353,-1.1352,0,0,0,0,0,0,0,0,0,0,0,0,0,-1.1438,-1.146,-1.1413,-1.1408,-1.1407,-1.1386,-1.1385,-1.1385,-1.1383,-1.1383,-1.1384,-1.1384,-1.1355,-1.1353,-1.1352,-1.1333,0,0,-1.1347,-1.1346,0,0,0,0,0,0,0,0,-1.1439,-1.1436,-1.1409,-1.1408,-1.1408,-1.1388,-1.1391,-1.1367,-1.1383,-1.1392,-1.1384,-1.1385,-1.1365,-1.1363,-1.1356,-1.1331,-1.133,-1.1347,-1.1346,-1.1345,-1.1344,0,0,0,0,0,0,0,-1.1441,-1.1437,-1.1402,-1.1409,-1.1408,-1.1407,-1.1404,-1.1387,-1.1376,-1.1391,-1.1391,-1.1388,-1.1365,-1.1358,-1.1356,-1.1329,-1.1347,-1.1345,-1.1344,-1.1344,-1.1287,-1.1286,0,0,0,0,0,0,-1.1444,-1.1439,-1.1403,-1.1401,-1.1425,-1.1405,-1.1402,-1.1394,-1.1376,-1.1374,-1.1388,-1.1388,-1.1361,-1.1358,-1.1355,-1.1331,-1.1345,-1.1343,-1.1343,-1.1287,-1.1287,-1.1286,0,0,0,0,0,0,-1.1445,-1.144,-1.1404,-1.142,-1.1415,-1.1404,-1.1395,-1.1393,-1.1387,-1.1374,-1.1372,-1.1383,-1.1361,-1.1357,-1.1338,-1.133,-1.1343,-1.1341,-1.1288,-1.1287,-1.1286,-1.1283,0,0,0,0,0,0,-1.1446,-1.1441,-1.1434,-1.142,-1.1414,-1.1388,-1.1394,-1.1392,-1.1384,-1.1384,-1.1369,-1.1367,-1.1361,-1.1341,-1.1337,-1.1328,-1.134,-1.1289,-1.1288,-1.1287,-1.1284,-1.1282,-1.1281,0,0,0,0,0,-1.1448,-1.1433,-1.1433,-1.1429,-1.1405,-1.1388,-1.1385,-1.1379,-1.1383,-1.1376,-1.1368,-1.1367,-1.1331,-1.1339,-1.1334,-1.1325,-1.1289,-1.1288,-1.1287,-1.1284,-1.1282,-1.1281,0,0,0,0,0,0,-1.1446,-1.1432,-1.1431,-1.1412,-1.1401,-1.1388,-1.1378,-1.1377,-1.1364,-1.1365,-1.1358,-1.1354,-1.1336,-1.1328,-1.1337,-1.1305,-1.1311,-1.1308,-1.131,-1.1308,-1.1307,-1.1309,-1.1339,0,0,0,0,0,-1.1444,-1.1431,-1.1419,-1.1403,-1.1398,-1.1389,-1.1381,-1.1378,-1.1366,-1.1361,-1.1352,-1.134,-1.1326,-1.1317,-1.1303,-1.1283,-1.1279,-1.1274,-1.1273,-1.1271,-1.1269,-1.1257,-1.1255,-1.1282,-1.1282,-1.1282,0,0,-1.1438,-1.1429,-1.1421,-1.1403,-1.1394,-1.1381,-1.1385,-1.1371,-1.1361,-1.1359,-1.1341,-1.1333,-1.132,-1.13,-1.1291,-1.1293,-1.1261,-1.127,-1.1269,-1.1267,-1.1256,-1.1253,-1.1251,-1.1281,-1.1281,-1.1282,0,0,-1.1421,-1.1413,-1.1399,-1.139,-1.1377,-1.1371,-1.1368,-1.1355,-1.135,-1.1332,-1.133,-1.1318,-1.1294,-1.1284,-1.1276,-1.1256,-1.1255,-1.1252,-1.1243,-1.1232,-1.123,-1.1228,-1.122,-1.1218,-1.125,-1.125,-1.125,0,-1.1415,-1.1396,-1.1391,-1.1377,-1.1369,-1.1368,-1.1353,-1.1345,-1.1328,-1.1322,-1.1325,-1.1295,-1.1286,-1.1264,-1.1259,-1.1253,-1.1248,-1.1253,-1.1231,-1.1229,-1.1227,-1.1219,-1.1216,-1.125,-1.125,-1.125,-1.125,0,-1.139,-1.1376,-1.1366,-1.1351,-1.1341,-1.1327,-1.132,-1.1311,-1.1308,-1.1302,-1.1283,-1.1272,-1.1256,-1.1251,-1.1248,-1.1228,-1.123,-1.1232,-1.1238,-1.1224,-1.1217,-1.1214,-1.1249,-1.1249,-1.1249,-1.1249,0,0,-1.137,-1.1352,-1.1349,-1.1341,-1.1327,-1.1316,-1.1302,-1.1287,-1.128,-1.1268,-1.1255,-1.1236,-1.1237,-1.1228,-1.1225,-1.1215,-1.1199,-1.1218,-1.1217,-1.1214,-1.1176,-1.1174,-1.117,-1.1198,-1.1198,-1.1197,-1.1177,0,-1.1351,-1.1325,-1.1321,-1.1299,-1.1286,-1.1285,-1.1272,-1.1262,-1.1256,-1.1243,-1.1237,-1.1222,-1.1226,-1.1221,-1.1211,-1.1203,-1.1191,-1.1204,-1.1186,-1.1185,-1.1188,-1.1167,-1.1165,-1.1145,-1.1174,-1.1173,-1.1173,0,-1.1325,-1.1313,-1.129,-1.1277,-1.1272,-1.1261,-1.1247,-1.1235,-1.1224,-1.122,-1.121,-1.1208,-1.1192,-1.1199,-1.1177,-1.1186,-1.1179,-1.1173,-1.1173,-1.117,-1.1178,-1.1163,-1.1139,-1.1136,-1.1169,-1.1169,-1.1169,0,-1.1312,-1.1291,-1.1274,-1.1268,-1.1253,-1.1245,-1.1238,-1.1227,-1.1219,-1.1206,-1.1201,-1.1187,-1.1179,-1.1168,-1.1161,-1.1167,-1.114,-1.1146,-1.1136,-1.1136,-1.1129,-1.1129,-1.1103,-1.1125,-1.1125,-1.1125,-1.1126,0,-1.129,-1.1276,-1.1268,-1.1257,-1.1241,-1.1236,-1.122,-1.1213,-1.1203,-1.1191,-1.1189,-1.1178,-1.117,-1.1158,-1.1153,-1.1135,-1.1132,-1.1128,-1.1126,-1.1127,-1.1128,-1.1122,-1.1122,-1.1125,-1.1125,-1.1125,-1.1125,0,-1.1273,-1.1267,-1.1248,-1.1236,-1.1233,-1.1221,-1.1211,-1.12,-1.1195,-1.1179,-1.1175,-1.1166,-1.1151,-1.1144,-1.1125,-1.1122,-1.1102,-1.1102,-1.1106,-1.1105,-1.1094,-1.1095,-1.1062,-1.1058,-1.1084,-1.1084,-1.1084,0,-1.1259,-1.1248,-1.1235,-1.1227,-1.122,-1.1208,-1.1199,-1.1194,-1.1185,-1.1171,-1.1162,-1.1147,-1.1135,-1.1111,-1.1102,-1.1088,-1.1087,-1.1077,-1.1085,-1.1086,-1.1086,-1.1086,-1.1085,-1.1075,-1.1075,-1.1074,-1.1074,0,-1.1235,-1.1233,-1.1221,-1.1208,-1.1198,-1.1187,-1.1177,-1.117,-1.1163,-1.1153,-1.1139,-1.1129,-1.111,-1.1095,-1.1081,-1.1073,-1.1072,-1.1072,-1.1068,-1.1069,-1.1072,-1.1069,-1.1101,-1.1072,-1.1073,-1.1073,-1.1073,-1.1073,-1.1219,-1.1209,-1.1198,-1.1185,-1.1176,-1.1167,-1.1156,-1.115,-1.1137,-1.1122,-1.112,-1.1104,-1.1092,-1.1072,-1.1065,-1.1052,-1.1054,-1.1049,-1.1048,-1.1046,-1.1046,-1.1075,-1.1049,-1.1049,-1.1049,-1.1049,-1.1049,0,-1.1194,-1.1187,-1.1175,-1.1161,-1.115,-1.1151,-1.114,-1.1131,-1.1117,-1.1107,-1.1095,-1.1078,-1.1063,-1.1054,-1.1039,-1.1031,-1.103,-1.1027,-1.1027,-1.1025,-1.1045,-1.1049,-1.1028,-1.1028,-1.1028,-1.1028,-1.1028,-1.1028,-1.118,-1.1163,-1.1159,-1.1138,-1.1131,-1.1116,-1.1109,-1.11,-1.1092,-1.1073,-1.1061,-1.1056,-1.1046,-1.103,-1.1017,-1.1015,-1.1009,-1.1006,-1.1003,-1.1022,-1.1024,-1.1026,-1.103,-1.1005,-1.1005,-1.0985,-1.0985,-1.0984]}]]